This demonstration page uses our WeatherBlox Daily Observations layout. Learn more.

Hourly Observations for July 3, 2018

Temp ( °F °C ) Dew Point ( °F °C ) Humidity (%) Winds ( mph kmh ) Pressure ( in mb ) Visibility ( mi km ) Precip ( " mm )
12:15 am 00:15 Clear 78 25.5 72 22 81 81 SSE 13 20 29.83 1010 10 16.0934 0 0
12:35 am 00:35 Clear 78 25.6 72 22.1 81 81 SSE 15 24 29.83 1010 10 16.0934 0 0
12:55 am 00:55 Clear 78 25.3 72 22.1 83 83 SSE 13 20 29.83 1010 10 16.0934 0 0
1:15 am 01:15 Clear 77 25.1 72 22.1 83 83 SSE 13 20 29.83 1010 10 16.0934 0 0
1:35 am 01:35 Clear 77 24.9 72 22.2 85 85 SSE 13 20 29.83 1010 10 16.0934 0 0
1:55 am 01:55 Clear 77 24.8 72 22.3 86 86 SSE 14 22 29.83 1010 10 16.0934 0 0
2:15 am 02:15 Clear 76 24.6 73 22.5 88 88 SSE 13 20 29.83 1010 10 16.0934 0 0
2:35 am 02:35 Clear 76 24.5 73 22.5 89 89 SSE 12 19 29.83 1010 10 16.0934 0 0
2:55 am 02:55 Clear 75 24.1 73 22.7 92 92 SSE 10 17 29.83 1010 10 16.0934 0 0
3:15 am 03:15 Clear 75 23.7 73 22.6 94 94 SSE 10 17 29.83 1010 10 16.0934 0 0
3:35 am 03:35 Clear 74 23.6 73 22.7 95 95 SSE 10 17 29.83 1010 10 16.0934 0 0
3:55 am 03:55 Clear 74 23.5 73 22.7 95 95 SSE 9 15 29.83 1010 10 16.0934 0 0
4:15 am 04:15 Clear 74 23.2 73 22.7 97 97 SSE 9 15 29.83 1010 7 11.26538 0 0
4:35 am 04:35 Clear 74 23.1 73 22.7 98 98 SSE 10 17 29.83 1010 7 11.26538 0 0
4:55 am 04:55 Clear 73 23 73 22.6 98 98 SSE 10 17 29.83 1010 7 11.26538 0 0
5:15 am 05:15 Clear 73 23 73 22.6 98 98 SSE 9 15 29.8 1009 7 11.26538 0 0
5:35 am 05:35 Clear 73 22.8 73 22.6 99 99 SSE 10 17 29.8 1009 7 11.26538 0 0
5:55 am 05:55 Clear 73 22.6 73 22.5 99 99 SSE 12 19 29.8 1009 7 11.26538 0 0
6:15 am 06:15 Sunny 73 22.5 73 22.5 100 100 SSE 12 19 29.8 1009 7 11.26538 0 0
6:35 am 06:35 Sunny with Mist and Fog 73 22.5 72 22.3 99 99 SSE 13 20 29.8 1009 5 8.0467 0 0
6:55 am 06:55 Sunny with Mist and Fog 73 22.5 73 22.5 100 100 SSE 14 22 29.8 1009 5 8.0467 0 0
7:15 am 07:15 Sunny with Mist and Fog 73 22.6 73 22.5 99 99 SSE 14 22 29.8 1009 5 8.0467 0 0
7:35 am 07:35 Sunny 73 23 73 22.6 98 98 S 14 22 29.8 1009 7 11.26538 0 0
7:55 am 07:55 Partly Cloudy 74 23.5 73 22.8 96 96 S 14 22 29.8 1009 7 11.26538 0 0
8:15 am 08:15 Cloudy 75 23.7 73 23 96 96 S 12 19 29.83 1010 7 11.26538 0 0
8:35 am 08:35 Cloudy 76 24.2 74 23.1 94 94 SSW 14 22 29.83 1010 7 11.26538 0 0
8:55 am 08:55 Mostly Cloudy 77 24.9 74 23.2 90 90 S 12 19 29.83 1010 7 11.26538 0 0
9:15 am 09:15 Partly Cloudy 78 25.7 73 22.9 85 85 SSW 13 20 29.83 1010 10 16.0934 0 0
9:35 am 09:35 Sunny 79 26.1 73 22.5 81 81 S 13 20 29.83 1010 10 16.0934 0 0
9:55 am 09:55 Sunny 80 26.6 73 22.5 78 78 S 12 19 29.8 1009 10 16.0934 0 0
10:15 am 10:15 Sunny 80 26.7 72 22.3 77 77 S 15 24 29.77 1008 10 16.0934 0 0
10:35 am 10:35 Sunny 81 27.2 73 22.7 76 76 SSE 15 24 29.77 1008 10 16.0934 0 0
10:55 am 10:55 Sunny 82 28 72 22.4 72 72 SSE 20 31 29.74 1007 10 16.0934 0 0
11:15 am 11:15 Sunny 83 28.6 72 22.2 68 68 S 15 24 29.74 1007 10 16.0934 0 0
11:35 am 11:35 Sunny 85 29.6 71 21.5 62 62 S 18 30 29.77 1008 10 16.0934 0 0
11:55 am 11:55 Sunny 85 29.6 71 21.4 61 61 SSW 13 20 29.77 1008 10 16.0934 0 0
12:15 pm 12:15 Sunny 86 30.2 71 21.7 60 60 S 16 26 29.74 1007 10 16.0934 0 0
12:35 pm 12:35 Sunny 88 31 71 21.4 57 57 S 14 22 29.74 1007 10 16.0934 0 0
12:55 pm 12:55 Sunny 86 30.2 70 21.2 59 59 S 13 20 29.74 1007 10 16.0934 0 0
1:15 pm 13:15 Sunny 89 31.8 71 21.4 54 54 S 17 28 29.74 1007 10 16.0934 0 0
1:35 pm 13:35 Sunny 90 32.1 70 21.2 53 53 S 18 30 29.74 1007 10 16.0934 0 0
1:55 pm 13:55 Sunny 89 31.5 69 20.8 53 53 S 16 26 29.74 1007 10 16.0934 0 0
2:15 pm 14:15 Sunny 89 31.5 70 21.1 54 54 S 12 19 29.74 1007 10 16.0934 0 0
2:35 pm 14:35 Sunny 90 32.1 69 20.7 51 51 S 14 22 29.74 1007 10 16.0934 0 0
2:55 pm 14:55 Sunny 90 32 70 20.9 52 52 S 13 20 29.74 1007 10 16.0934 0 0
3:15 pm 15:15 Sunny 89 31.6 71 21.7 56 56 SSE 12 19 29.74 1007 10 16.0934 0 0
3:35 pm 15:35 Sunny 90 32.3 71 21.8 54 54 SSE 10 17 29.74 1007 10 16.0934 0 0
3:55 pm 15:55 Sunny 91 32.5 70 21.2 51 51 SSE 15 24 29.74 1007 10 16.0934 0 0
4:15 pm 16:15 Sunny 90 32.2 72 22.3 56 56 SSE 10 17 29.74 1007 10 16.0934 0 0
4:35 pm 16:35 Sunny 91 32.7 72 22.1 54 54 SSE 10 17 29.74 1007 10 16.0934 0 0
4:55 pm 16:55 Sunny 91 32.5 72 22.1 54 54 SSE 9 15 29.74 1007 10 16.0934 0 0
5:15 pm 17:15 Sunny 91 32.5 72 22 54 54 SSE 10 17 29.74 1007 10 16.0934 0 0
5:35 pm 17:35 Sunny 90 32.2 70 20.9 51 51 SSE 10 17 29.74 1007 10 16.0934 0 0
5:55 pm 17:55 Sunny 90 32.2 70 20.9 51 51 SSE 10 17 29.74 1007 10 16.0934 0 0
6:15 pm 18:15 Sunny 89 31.8 72 22.2 57 57 SSE 8 13 29.74 1007 10 16.0934 0 0
6:35 pm 18:35 Sunny 89 31.6 73 22.5 59 59 SSE 7 11 29.74 1007 10 16.0934 0 0
6:55 pm 18:55 Sunny 88 31.2 74 23.1 62 62 SSE 8 13 29.74 1007 10 16.0934 0 0
7:35 pm 19:35 Sunny 86 30 73 22.8 65 65 SE 6 9 29.74 1007 10 16.0934 0 0
8:15 pm 20:15 Sunny 83 28.6 73 22.6 70 70 SE 7 11 29.77 1008 10 16.0934 0 0
8:35 pm 20:35 Sunny 82 27.9 72 22 70 70 SE 8 13 29.77 1008 10 16.0934 0 0
8:55 pm 20:55 Sunny 81 27.1 71 21.7 72 72 SE 7 11 29.8 1009 10 16.0934 0 0
9:15 pm 21:15 Clear 79 26.1 71 21.6 76 76 SE 7 11 29.83 1010 10 16.0934 0 0
9:35 pm 21:35 Clear 78 25.5 71 21.6 79 79 SE 6 9 29.83 1010 10 16.0934 0 0
9:55 pm 21:55 Clear 77 25.1 71 21.6 81 81 SE 6 9 29.85 1011 10 16.0934 0 0
10:15 pm 22:15 Clear 77 25.1 70 21.2 79 79 SE 8 13 29.85 1011 10 16.0934 0 0
10:35 pm 22:35 Clear 76 24.7 70 21.1 80 80 SE 8 13 29.85 1011 10 16.0934 0 0
10:55 pm 22:55 Clear 76 24.5 69 20.6 79 79 SSE 7 11 29.85 1011 10 16.0934 0 0
11:15 pm 23:15 Clear 76 24.5 68 20.2 77 77 SSE 7 11 29.85 1011 10 16.0934 0 0
11:35 pm 23:35 Clear 76 24.5 68 20.1 77 77 SSE 8 13 29.88 1012 10 16.0934 0 0
11:55 pm 23:55 Clear 76 24.5 68 20 76 76 SSE 8 13 29.88 1012 10 16.0934 0 0

Powered by AerisWeather